Home > Weather > McAllen > Past weeks

Flag for USA Weather for the Past 2 Weeks in McAllen, Texas, USA

Now
65 °F

Clear.


Feels Like: 65 °F
Forecast: 63 / 94 °F
Wind: 3 mph from South

Location: Miller International Airport

Current Time: May 5, 2016 at 7:42:40 AM

Latest Report: May 5, 2016 at 6:53 AM


Visibility: 9 mi

Pressure: 30.03 "Hg

Humidity: 73%

Dew Point: 56 °F

Location of McAllenLocation

Historic Weather in McAllen — Graph

°F

McAllen Temperature Yesterday

Maximum temperature yesterday: 93 °F (at 3:53 PM)
Minimum temperature yesterday: 67 °F (at 11:53 PM)
Average temperature yesterday: 79 °F

High & Low Weather Summary for the Past Weeks

 TemperatureHumidityPressure
High100 °F (Apr 30, 3:53 PM)91% (Apr 21, 6:03 AM)30.10 "Hg (Apr 21, 6:03 AM)
Low66 °F (May 5, 3:53 AM)20% (May 4, 3:53 PM)29.55 "Hg (Apr 27, 4:53 AM)
Average81 °F67%29.83 "Hg
* Reported Apr 20 5:53 AM — May 5 5:53 AM, McAllen, Weather by CustomWeather, © 2016

Note: Actual official high and low records may vary slightly from our data, if they occured in-between our weather recording intervals... More about our weather records

Advertising

McAllen Weather History for the Previous 24 Hours

Scroll right to see more
 ConditionsComfort  
Time TempWeatherWind HumidityBarometerVisibility
5:53 AM
Thu, May 5
66 °FClear.5 mph68%30.01 "Hg10 mi
4:53 AM68 °FClear.6 mph65%30.01 "Hg10 mi
3:53 AM66 °FClear.5 mph81%30.01 "Hg10 mi
2:53 AM68 °FClear.3 mph76%30.03 "Hg10 mi
1:53 AM69 °FClear.5 mph73%30.04 "Hg10 mi
12:53 AM67 °FClear.5 mph76%30.06 "Hg10 mi
11:53 PM
Wed, May 4
67 °FClear.7 mph71%30.05 "Hg10 mi
10:53 PM71 °FClear.8 mph61%30.04 "Hg10 mi
9:53 PM74 °FClear.10 mph50%30.02 "Hg10 mi
8:53 PM78 °FSunny.10 mph40%29.99 "Hg10 mi
7:53 PM82 °FSunny.15 mph33%29.98 "Hg10 mi
6:53 PM88 °FSunny.14 mph26%29.96 "Hg10 mi
5:53 PM91 °FSunny.12 mph22%29.97 "Hg10 mi
4:53 PM91 °FSunny.3 mph20%29.98 "Hg10 mi
3:53 PM93 °FSunny.9 mph20%30.01 "Hg10 mi
2:53 PM90 °FSunny.5 mph22%30.03 "Hg10 mi
1:53 PM90 °FSunny.7 mph23%30.06 "Hg10 mi
12:53 PM86 °FSunny.8 mph28%30.08 "Hg10 mi
11:53 AM84 °FSunny.8 mph35%30.10 "Hg10 mi
10:53 AM82 °FSunny.12 mph41%30.10 "Hg10 mi
9:53 AM78 °FSunny.8 mph48%30.10 "Hg10 mi
8:53 AM76 °FSunny.12 mph52%30.09 "Hg10 mi
7:53 AM72 °FPartly sunny.10 mph59%30.08 "Hg10 mi
Weather by CustomWeather, © 2016

See weather overviewHow to use our weather pages